Location: Bratislava
(48.1500°N, 17.1167°E)
Time: 17:30:47
(UTC+01:00)

ISS - Pass Details

Date: 25 January 2020
Orbit: 415 x 422 km, 51.6° (Epoch: 26 February)

Event Time Altitude Azimuth Distance (km) Brightness Sun altitude
Rises 19:09:58 0° 266° (W) 2,377 1.5 -24.9°
Reaches altitude 10° 19:12:07 10° 272° (W) 1,511 0.1 -25.3°
Enters shadow 19:14:05 30° 290° (WNW) 791 -1.8 -25.6°
